Location: Hokitika
(42.7170°S, 170.9670°E)
Time: 06:57:02
(UTC+12:00)

ERBS - Pass Details

Date: 24 January 2019
Orbit: 419 x 429 km, 57.0° (Epoch: 21 April)

Event Time Altitude Azimuth Distance (km) Brightness Sun altitude
Rises 22:29:34 0° 221° (SW) 2,427 8.1 -13.0°
Reaches altitude 10° 22:31:51 10° 210° (SSW) 1,556 6.4 -13.4°
Maximum altitude 22:35:00 31° 145° (SE) 795 3.7 -13.8°
Enters shadow 22:37:01 18° 92° (E) 1,164 4.1 -14.0°
